Location: Potawatomi Wildlife Park
(41.2308°N, 86.1050°W)
Time: 02:19:45
(UTC-04:00)

Daily predictions for brighter satellites

Satellite Brightness Start Highest point End
(mag) Time Altitude Azimuth Time Altitude Azimuth Time Altitude Azimuth
FALCON 9 R/B 4.4 03:31:24 60° SE 03:31:24 60° SE 03:58:33 10° E
Cosmos 2263 Rocket 4.5 03:27:50 10° N 03:31:06 19° NE 03:31:06 19° NE
SL-16 R/B 3.9 04:16:20 30° NNW 04:16:20 30° NNW 04:19:16 10° NNW
Cosmos 2322 Rocket 3.2 04:28:06 42° NNE 04:28:06 42° NNE 04:31:47 10° NNE
CENTAUR R/B 3.1 04:30:07 51° N 04:30:07 51° N 04:35:34 10° NNE
SL-16 R/B 3.1 04:31:51 46° NNE 04:31:51 46° NNE 04:35:46 10° NNE
ADEOS Rocket 3.6 04:25:30 10° NNE 04:29:19 45° NNE 04:29:19 45° NNE
USA 215 3.9 04:25:57 10° ESE 04:32:14 51° NNE 04:38:33 10° NW
ARIANE 5 R/B 4.0 04:41:40 10° N 04:44:11 28° N 04:44:11 28° N
CZ-2D R/B 3.3 04:50:01 10° N 04:53:19 34° NNW 04:53:19 34° NNW
Cosmos 2360 Rocket 2.6 04:57:54 54° ESE 04:58:14 55° ESE 05:03:45 10° NNE
Cosmos 1980 Rocket 3.9 05:01:00 21° NNW 05:01:00 21° NNW 05:03:57 10° N
Resurs 1-4 Rocket 3.4 04:54:49 10° N 04:57:40 29° NNW 04:57:40 29° NNW
Okean O Rocket 2.7 05:04:58 10° NNE 05:09:09 40° E 05:09:49 37° ESE
Cosmos 2263 Rocket 3.8 05:10:47 10° NNW 05:12:41 22° NNW 05:12:41 22° NNW
Cosmos 2184 Rocket 4.0 05:10:26 10° N 05:16:40 78° E 05:22:49 11° S
Cosmos 1340 3.8 05:18:04 42° ENE 05:18:04 42° ENE 05:21:12 10° NNE
DELTA 2 R/B (1) 4.2 05:20:34 41° SSE 05:20:44 41° SSE 05:25:55 10° E
Cosmos 1777 Rocket 4.0 05:16:27 10° NNW 05:21:47 81° ENE 05:27:04 10° SSE
Meteor 1-18 Rocket 4.1 05:22:10 56° S 05:23:25 84° E 05:29:02 10° N
MOS 1-B 4.2 05:19:03 10° N 05:24:53 76° WNW 05:25:50 62° SW
ADEOS II 2.7 05:22:23 10° NNE 05:27:33 54° E 05:30:52 22° S
Lacrosse 5 3.8 05:34:51 16° SSE 05:34:51 16° SSE 05:35:55 10° SSE
Cosmos 1455 Rocket 3.0 05:26:54 10° N 05:31:19 80° E 05:32:07 59° SSE
Cosmos 2322 3.6 05:29:55 54° SSW 05:31:20 89° ESE 05:37:06 10° NNE
MOS 1 Rocket 3.1 05:28:35 10° N 05:33:13 70° WNW 05:33:13 70° WNW
EO 1 Del DPAF 3.7 05:34:10 24° SSE 05:36:21 62° ENE 05:40:11 10° N
Okean 1 3.3 05:40:04 71° NNW 05:40:04 71° NNW 05:43:50 10° N
Cosmos 1238 Rocket 3.6 05:46:13 29° SE 05:47:04 36° E 05:49:49 10° NNE
Cosmos 2154 Rocket 4.1 05:44:05 10° N 05:50:19 76° E 05:56:30 10° SSE
Cosmos 1975 2.7 05:46:34 10° NNW 05:50:36 66° W 05:50:38 66° W
Lacrosse 4 Rocket 1.4 05:46:30 10° NNW 05:50:42 81° ENE 05:54:58 10° SSE
Cosmos 1536 Rocket 3.5 05:54:40 41° SSW 05:56:08 71° W 06:00:37 10° N
CZ-4B DEB 4.1 05:50:36 10° NNE 05:56:12 86° WNW 06:00:33 17° SSW
Cosmos 2208 Rocket 4.1 05:53:05 21° SSW 05:56:49 80° ESE 06:02:18 10° NNE
Cosmos 1500 3.7 05:54:09 10° NNW 05:57:02 41° NW 05:57:02 41° NW
Tiangong 2 1.0 05:59:14 78° NNE 05:59:14 78° NNE 06:02:21 10° E
CZ-4B R/B 3.2 05:54:50 10° NNE 06:00:31 80° WNW 06:04:58 16° SSW
Meteor PRIRODA 4.4 05:57:58 10° NNE 06:01:41 54° E 06:05:22 10° S
IRAS Rocket 4.1 05:58:06 10° NNE 06:03:40 82° WNW 06:08:32 14° SSW
IRS-P2 Rocket 4.5 06:03:17 10° N 06:08:30 77° WNW 06:13:12 13° SSW
Cosmos 2181 Rocket 4.3 06:04:08 10° S 06:10:14 68° E 06:16:29 10° NNE
Cosmos 2322 Rocket 3.8 06:09:55 17° WNW 06:10:51 17° NW 06:14:31 10° N
Gblst 52 Del rocket 4.3 06:06:19 13° NW 06:11:34 88° NNE 06:18:02 10° SE
PSLV R/B 3.6 06:07:57 10° N 06:12:13 59° WNW 06:14:44 24° SW
Nadezhda 1 Rocket 4.1 06:10:50 20° SW 06:14:50 48° WNW 06:20:42 10° N
Cosmos 2237 4.3 06:11:23 24° SW 06:14:53 62° WNW 06:20:35 10° NNE
SL-16 R/B 3.8 06:13:43 16° WNW 06:14:54 17° NW 06:18:32 10° N
USA 215 3.4 06:08:52 10° SSE 06:15:13 51° SW 06:21:35 10° NW
ADEOS Rocket 4.5 06:13:02 10° NNW 06:15:53 14° WNW 06:16:16 14° WNW
COSMOS 2428 2.6 06:14:19 18° SSW 06:18:40 73° WNW 06:24:23 10° NNE
ERS-2 2.2 06:17:10 10° NNE 06:20:53 83° ESE 06:24:34 10° SSW
CENTAUR R/B 4.3 06:17:17 12° WNW 06:20:58 19° NNW 06:25:48 10° NNE
CZ-2C R/B 3.9 06:17:29 10° S 06:21:56 48° W 06:26:20 10° NNW
Thor Agena Rocket 4.1 06:18:27 10° SSE 06:23:25 61° ENE 06:28:25 10° N
USA 229 DEB 4.0 06:16:47 10° SSW 06:23:32 66° ESE 06:30:24 10° NE
USA 229 4.1 06:16:54 10° SSW 06:23:38 66° ESE 06:30:29 10° NE
ISS -2.3 06:24:19 22° SSW 06:24:19 22° SSW 06:26:20 10° S
Cosmos 2219 Rocket 2.4 06:19:57 10° SSW 06:25:31 74° ESE 06:31:06 10° NNE
Cosmos 2341 Rocket 3.9 06:21:40 10° N 06:27:55 75° W 06:34:06 10° S
Meteor 1-19 Rocket 4.2 06:25:12 10° SSW 06:30:48 70° W 06:36:31 10° N
Cosmos 1844 Rocket 2.6 06:29:03 10° NNW 06:34:37 69° WSW 06:40:07 10° SSE
Cosmos 1570 Rocket 4.4 06:31:16 17° SW 06:35:01 43° WNW 06:40:00 10° N
CZ-4B R/B 4.1 06:32:42 10° N 06:37:13 81° WNW 06:41:43 10° SSW
Cosmos 2218 Rocket 4.5 06:30:57 10° N 06:37:20 68° E 06:43:37 10° SSE
CZ-4B R/B 4.2 06:35:33 10° NNW 06:38:04 18° WNW 06:38:35 18° W
Cosmos 1898 Rocket 3.5 06:36:15 10° NNW 06:41:29 86° ENE 06:46:39 10° SSE
Cosmos 2360 Rocket 3.4 06:39:41 16° W 06:42:36 23° NW 06:47:04 10° N
Cosmos 468 Rocket 4.0 06:39:15 10° SSW 06:44:25 89° ESE 06:49:41 10° NNE
Cosmos 2278 Rocket 2.8 06:39:19 10° NNW 06:44:57 62° ENE 06:50:33 10° SE
Okean O Rocket 3.1 06:42:01 10° NNW 06:45:14 20° WNW 06:47:17 15° W
Meteor 2-4 Rocket 3.7 06:43:44 10° SSW 06:49:19 67° W 06:54:47 10° N
Cosmos 2237 Rocket 2.6 06:44:48 10° SSW 06:50:25 70° ESE 06:56:06 10° NNE
Cosmos 405 Rocket 2.8 06:48:12 10° S 06:52:16 89° ESE 06:56:20 10° N
Feng Yun 1-1 Rocket 4.4 06:48:27 10° N 06:54:16 66° WNW 06:59:57 10° SSW
Okean-O 2.8 06:51:16 10° N 06:55:35 52° WNW 06:59:53 10° SSW
COSMO-SKYMED 1 2.8 06:51:59 10° SSE 06:56:18 78° ENE 07:00:40 10° N
Cosmos 1666 3.3 06:56:49 10° NNW 07:00:20 34° W 07:03:51 10° SSW
Cosmos 2228 4.3 06:56:30 10° N 07:00:41 46° E 07:04:52 10° SSE
Cosmos 2285 Rocket 4.1 06:55:48 10° SSW 07:02:12 70° WNW 07:08:39 10° NNE
Cosmos 1743 4.1 06:59:44 10° NW 07:02:33 19° W 07:05:20 10° SW
Meteor 1-31 Rocket 3.4 06:59:19 10° N 07:02:47 34° WNW 07:06:14 10° SW
Cosmos 1726 Rocket 3.6 06:59:36 10° N 07:04:04 89° ENE 07:08:32 10° S
ADEOS II 3.4 07:03:06 10° NNW 07:06:51 20° WNW 07:10:35 10° WSW
DELTA 2 R/B (1) 3.7 07:01:21 10° WSW 07:06:52 74° S 07:12:25 10° E
Cosmos 2333 Rocket 2.3 07:01:13 10° SSW 07:06:53 66° WNW 07:12:36 10° NNE
ATLAS 5 CENTAUR R/B 2.6 07:01:08 10° NW 07:07:11 85° NE 07:13:44 10° SE
BREEZE M DEB (TANK) 3.0 06:58:18 10° WNW 07:07:26 89° NE 07:10:33 10° ESE
Cosmos 1025 Rocket 3.4 07:04:44 10° SSW 07:08:53 42° WNW 07:13:05 10° N
Cosmos 1892 Rocket 3.5 07:06:58 10° S 07:11:18 82° W 07:15:41 10° N
NOSS 0 Rocket 4.0 07:07:41 10° SSW 07:13:50 69° WNW 07:20:00 10° NNE
Cosmos 1937 Rocket 3.5 07:08:35 10° NNW 07:13:53 68° WSW 07:19:07 10° S
Cosmos 1763 Rocket 3.5 07:10:14 10° SSW 07:15:18 89° E 07:20:27 10° NNE
NOAA 6 4.1 07:11:34 10° N 07:16:36 57° WNW 07:21:35 10° SSW
